Temperature
13 13 12 12 12 12 12 12 12 12 11 11 11 11 11 11 12 12 12 12 12 12 13 13 14 14 14 14 14 13 13 13 12 13 13 13 13 13 13 14 14 15 15
12 12 12 12 12 12 12 12 12 11 11 11 11 11 11 11 11 11 11 11 11 11 12 12 13 13 13 13 14 14 13 13 13 13 13 12 12 12 12 12 13 13 14
11 11 11 11 11 11 11 11 11 11 11 11 11 10 10 10 10 10 10 11 11 11 11 11 12 12 13 13 14 14 13 13 13 13 12 12 12 12 12 12 12 12 12
9 9 10 10 10 11 11 11 11 11 11 11 11 10 10 10 10 10 10 10 10 10 10 11 11 12 12 13 13 14 13 13 13 13 12 12 12 12 12 12 11 11 11
7 7 8 8 9 9 9 10 10 11 11 11 10 10 10 10 10 10 10 10 10 10 10 10 11 11 12 12 13 13 13 13 13 13 12 12 12 12 12 11 11 11 11
5 5 6 6 6 7 8 8 9 10 10 10 10 10 10 9 9 9 9 9 9 9 9 10 10 10 11 12 12 13 13 13 13 13 12 12 12 12 12 11 11 11 10
4 5 5 5 5 5 6 6 7 8 9 9 9 9 9 9 9 9 9 9 9 9 9 9 10 10 11 11 12 12 13 13 13 13 13 12 12 12 12 12 11 11 11
4 4 4 4 4 4 4 5 5 6 7 8 8 9 9 9 9 9 9 9 9 9 9 9 9 10 10 11 12 12 12 13 13 13 13 13 12 12 12 12 11 11 10
4 4 4 4 3 3 4 4 4 5 6 6 7 7 8 8 8 8 8 8 9 9 9 9 9 9 10 10 11 11 12 12 13 13 12 12 12 12 12 11 11 10 9
4 4 4 3 3 3 3 3 3 4 4 5 6 7 7 7 8 8 8 8 8 9 9 9 9 9 9 10 10 11 11 12 12 12 12 12 12 12 12 12 11 11 10
4 4 4 4 3 3 3 3 3 3 4 4 5 6 6 7 7 7 7 7 8 8 9 9 9 9 9 9 10 10 11 11 12 12 12 12 11 11 11 11 11 11 11
4 4 4 4 3 3 3 3 3 3 3 4 4 5 5 6 6 7 7 7 7 8 8 9 9 8 9 9 9 10 10 11 11 11 11 11 11 11 10 10 10 11 11
4 4 4 4 4 3 3 3 3 3 3 3 4 4 5 5 6 6 6 7 7 8 8 8 8 8 8 9 9 10 10 10 11 11 11 11 11 10 10 10 10 10 10
4 4 4 4 4 4 3 3 3 3 3 3 4 4 4 5 6 6 6 7 7 7 8 8 8 8 8 8 9 9 10 10 10 11 11 10 10 10 10 10 10 9 10
5 4 4 4 4 4 4 3 3 4 3 4 4 4 4 5 5 6 6 7 7 8 8 8 8 7 7 8 8 9 9 10 10 10 10 10 10 10 10 10 10 10 10
5 5 4 4 4 4 4 4 4 4 4 4 4 4 4 5 5 6 6 7 7 7 8 8 7 7 7 7 8 8 9 9 10 10 10 10 10 10 10 10 10 10 10
5 5 5 4 4 4 4 4 4 4 4 4 4 4 5 5 6 6 7 7 7 7 7 7 7 7 7 7 7 8 8 9 10 10 10 10 10 10 10 10 10 11 11
6 5 5 5 4 4 4 4 4 4 4 4 5 5 5 5 6 6 7 7 7 7 7 7 7 7 7 7 7 7 8 9 9 10 10 11 11 11 11 11 11 11 11
6 6 6 5 5 5 5 4 4 5 5 5 5 5 5 6 6 6 7 7 7 7 7 7 7 7 7 6 7 7 8 9 9 10 10 10 10 11 11 11 11 11 11
6 6 6 6 5 5 5 5 5 5 5 5 5 5 5 6 6 6 7 7 7 7 7 7 6 6 6 6 7 7 8 9 9 10 10 10 10 11 11 10 10 10 10
7 6 6 6 6 6 6 5 5 5 5 5 5 5 6 6 6 6 7 7 7 7 7 6 6 6 6 6 7 7 8 9 9 10 10 10 10 10 10 10 10 10 10
7 7 6 7 7 6 6 6 6 5 5 5 5 6 6 6 6 6 6 6 6 6 6 6 6 6 6 7 7 8 8 9 10 10 10 10 10 10 9 9 9 9 9
7 7 7 7 7 7 7 6 6 6 6 5 5 6 6 6 6 6 6 6 6 6 6 6 6 6 7 7 7 8 9 9 10 10 10 10 10 10 10 9 10 10 9
7 7 7 7 7 7 7 6 6 6 6 6 5 6 6 6 6 6 6 7 7 7 6 7 7 7 7 7 8 8 9 10 10 10 11 10 10 10 10 10 10 10 10
7 7 7 7 7 7 7 6 6 6 6 6 6 6 6 6 6 7 7 7 7 7 7 7 7 8 8 8 9 9 10 10 10 10 10 10 10 10 10 10 10 10 10
7 7 7 7 7 7 7 6 6 6 6 6 6 6 6 6 7 7 7 8 8 8 8 9 9 9 9 9 10 10 10 10 10 10 10 10 10 10 10 10 10 10 10
Wind_Speed
12 12 12 12 11 9 9 10 9 8 8 7 7 6 5 5 4 3 4 5 7 8 8 9 10 9 7 7 7 7 7 7 7 4 2 1 2 4 3 6 8 8 10
12 12 12 13 12 11 12 12 11 11 10 9 8 7 7 7 5 5 5 4 5 7 8 9 10 9 10 8 7 8 8 8 7 6 3 3 2 5 6 6 6 8 9
13 12 13 13 13 14 14 14 13 12 12 10 9 9 9 8 7 7 7 6 6 6 6 7 8 9 10 9 9 9 8 7 7 6 5 3 2 4 6 6 8 7 9
13 13 14 14 14 15 14 14 13 13 13 12 12 11 10 9 9 8 8 7 7 7 6 6 7 8 9 9 9 10 8 8 7 6 6 4 3 5 6 6 6 5 6
13 14 14 14 14 14 14 14 13 13 14 13 12 11 10 8 9 9 9 8 8 8 7 7 6 8 10 9 8 9 9 9 8 7 7 6 5 7 7 5 8 8 6
13 14 14 14 14 14 14 14 13 13 12 12 12 12 10 9 11 13 10 8 8 8 7 7 6 8 10 12 14 14 13 11 11 9 9 9 9 8 8 10 10 8 5
13 15 14 14 14 14 15 13 13 12 11 11 12 11 11 11 13 13 12 8 8 8 8 7 7 7 8 8 10 14 16 16 14 12 12 11 11 11 13 13 11 7 6
15 15 14 14 15 14 13 13 13 10 9 9 10 11 10 10 13 13 12 8 8 10 10 9 9 9 8 8 8 9 11 12 14 12 11 11 11 13 13 12 12 11 10
16 15 15 15 15 15 14 13 11 9 9 8 8 10 10 10 11 12 9 5 7 10 10 9 9 9 11 11 9 10 9 8 9 12 12 11 15 18 18 15 15 15 12
17 17 16 15 15 15 13 12 10 8 9 8 9 9 10 9 10 11 9 5 7 8 7 7 9 10 11 11 11 11 11 9 8 8 9 13 16 21 22 19 18 17 15
17 17 16 14 14 13 12 10 9 9 8 8 9 8 8 9 10 11 10 6 7 8 6 6 5 6 9 11 12 10 11 10 9 10 10 12 13 14 14 12 13 17 16
17 16 15 14 12 11 9 9 8 8 8 7 6 7 6 7 8 10 12 12 10 8 7 6 5 5 4 6 8 9 12 12 9 10 11 11 12 13 13 12 10 8 8
16 15 14 13 11 10 9 9 8 6 6 6 6 7 7 6 7 11 12 12 13 9 7 8 8 6 3 3 4 9 14 11 10 11 11 11 10 13 13 12 11 10 9
16 14 12 12 11 9 7 6 6 6 6 6 7 7 7 6 6 6 6 6 9 8 6 7 8 6 3 3 3 6 9 9 10 11 11 10 11 12 12 12 12 11 10
14 12 11 10 10 8 7 6 6 6 6 6 6 6 6 6 7 9 7 6 8 9 8 6 4 3 3 2 2 3 5 8 9 9 12 12 12 11 10 10 10 10 9
13 11 9 8 8 7 7 7 6 5 6 8 8 6 6 7 6 8 10 10 11 14 9 7 6 5 4 3 2 3 5 8 9 10 11 12 13 12 10 9 10 11 11
13 11 8 7 7 7 7 6 6 4 3 1 2 4 5 4 5 6 9 12 13 14 7 7 6 6 5 3 3 3 4 7 9 11 12 12 11 11 11 11 11 11 10
12 11 9 6 6 5 5 5 4 4 3 2 4 3 2 3 5 9 13 11 8 7 5 6 6 6 5 4 4 4 5 8 9 11 11 11 11 11 11 11 11 11 10
10 8 7 5 5 5 4 4 3 3 2 1 2 3 6 8 9 10 8 5 8 7 5 5 5 5 5 4 4 5 6 8 11 11 11 12 11 11 10 10 9 12 11
8 11 9 5 5 5 4 3 3 2 1 1 1 2 2 3 4 4 2 3 5 5 5 5 5 5 5 5 4 5 7 8 10 10 11 11 10 10 11 11 10 10 9
7 7 9 6 4 4 4 3 3 2 1 0 1 2 3 3 4 4 3 3 4 4 4 4 4 5 5 5 5 6 8 9 9 10 10 10 10 10 10 10 10 9 9
6 5 4 4 4 4 4 3 3 2 1 0 1 2 4 3 3 3 3 3 3 3 4 4 4 4 6 7 7 7 8 9 9 10 10 10 10 10 10 10 9 9 9
7 5 4 3 3 4 3 3 2 2 1 0 2 3 3 3 3 3 3 3 3 3 3 4 4 4 5 6 6 7 9 10 10 11 11 11 11 10 10 10 11 11 10
8 6 4 3 3 3 3 3 3 2 1 1 1 2 3 3 3 3 3 3 3 3 3 4 4 5 7 7 6 7 7 9 10 12 14 13 12 10 9 10 10 12 11
9 7 5 3 3 3 3 3 4 4 3 2 2 2 2 2 3 2 2 2 2 2 3 4 4 5 8 10 10 9 11 13 12 12 11 11 12 11 11 10 9 10 9
10 9 7 5 4 3 2 2 3 3 3 3 3 3 3 3 3 2 2 1 1 1 2 3 6 8 9 10 11 12 13 13 14 14 11 11 11 10 11 9 10 10 10
Wind_Direction
274 269 264 262 255 245 240 242 242 243 241 243 247 251 257 260 257 260 267 261 241 234 226 223 227 220 214 208 202 202 207 214 239 253 234 215 154 127 91 81 78 73 82
273 270 266 264 261 254 249 247 241 238 237 236 238 243 249 251 243 238 245 254 260 253 239 231 235 229 224 217 206 206 206 207 221 244 239 213 171 149 124 101 85 78 80
291 285 279 272 264 257 252 248 242 236 235 232 228 233 239 242 242 241 238 236 236 244 242 236 237 232 231 223 214 210 206 203 209 225 235 214 159 145 129 105 93 85 81
301 296 290 283 276 269 262 252 244 236 231 229 225 226 232 236 238 241 241 241 237 232 232 236 238 236 239 232 222 216 200 197 201 216 228 219 175 152 142 133 114 91 85
303 301 297 294 289 282 275 266 255 243 236 227 222 221 225 229 235 235 235 238 237 235 231 230 235 245 247 241 229 217 197 196 198 207 215 208 184 168 158 143 131 113 86
299 298 297 295 293 289 284 277 267 254 240 226 218 216 216 222 228 228 226 230 232 233 239 241 244 255 258 251 238 221 200 195 198 201 209 209 193 170 153 150 144 139 123
299 298 297 296 294 291 290 286 275 261 245 230 224 213 213 221 227 235 236 229 232 234 236 243 254 255 262 264 251 228 212 203 195 195 206 206 188 170 159 159 157 142 130
303 300 298 297 296 294 289 284 277 268 254 238 230 222 213 224 227 234 242 237 236 238 236 234 242 257 262 258 246 227 215 211 209 209 214 204 186 170 161 152 139 115 107
306 302 300 297 294 292 289 284 279 269 259 247 237 228 218 225 230 236 239 231 238 242 238 232 234 250 258 246 232 222 213 213 212 209 206 189 165 154 146 138 139 135 134
307 303 298 293 291 288 284 282 277 268 257 251 244 232 221 225 232 236 233 222 237 243 240 232 232 246 257 241 225 215 209 203 186 179 179 166 159 155 153 155 153 149 145
307 304 300 294 291 286 281 278 273 265 254 243 243 238 228 227 235 238 233 217 228 235 234 229 228 243 255 241 223 216 205 184 179 173 165 161 157 158 157 155 156 155 154
310 308 305 300 296 293 283 279 272 264 250 235 239 243 240 236 236 242 237 228 220 222 223 216 208 218 247 237 222 206 180 171 171 167 161 158 157 157 155 152 145 136 137
315 314 312 309 303 294 286 280 273 258 248 232 226 236 244 241 239 238 241 237 220 212 213 195 187 194 197 190 204 190 174 173 169 165 160 154 151 148 145 140 132 119 111
319 320 319 319 315 308 296 281 270 257 248 230 224 230 238 241 241 237 233 225 206 197 187 174 170 172 166 153 148 182 184 176 169 161 149 141 140 143 146 147 148 143 132
322 323 322 323 323 318 311 296 281 262 248 233 224 221 225 238 240 224 210 197 186 180 167 165 173 178 179 157 158 179 177 167 158 147 145 145 147 148 148 149 149 152 150
325 326 325 325 326 326 323 321 302 281 268 240 233 226 229 237 254 232 208 193 176 163 161 176 184 186 184 171 172 180 172 162 156 150 150 151 154 156 152 155 159 163 161
323 322 320 323 326 329 331 332 335 341 21 62 215 219 228 248 243 205 181 170 166 161 171 182 186 186 183 180 186 186 171 160 154 152 151 150 151 153 156 161 165 167 165
319 319 321 315 318 322 326 328 328 335 356 38 50 59 96 121 138 143 143 141 156 174 183 183 188 187 181 180 186 181 165 155 150 149 147 146 148 151 154 159 164 165 159
315 314 312 311 313 313 319 326 331 336 358 40 73 59 72 90 104 129 140 147 163 177 184 186 188 184 181 183 179 173 164 155 149 146 145 146 148 148 150 154 155 153 152
310 314 322 317 320 322 326 330 333 338 360 57 94 116 121 107 120 140 141 143 166 179 186 188 185 184 182 181 169 166 159 150 146 145 146 146 148 149 150 150 152 157 159
308 310 322 326 325 319 317 317 318 322 335 74 93 146 156 145 145 157 164 170 186 192 187 186 183 183 181 173 166 167 160 151 150 149 149 148 148 148 149 150 153 153 148
312 303 312 320 326 328 321 316 314 313 317 135 121 139 163 157 156 164 180 198 206 204 194 184 178 184 179 171 167 165 158 153 153 153 152 152 152 151 149 150 150 150 151
328 320 316 324 330 338 347 349 341 335 334 126 143 150 163 169 170 179 191 201 206 207 205 193 180 177 168 166 168 166 164 165 163 159 155 155 155 155 155 156 156 155 160
339 338 332 329 339 354 2 4 4 9 16 38 120 145 159 168 172 181 188 197 198 197 197 194 188 174 167 171 175 178 174 165 161 162 158 158 159 159 161 164 167 173 175
350 353 350 343 341 350 6 17 21 25 34 58 91 108 127 144 156 165 178 198 207 211 208 199 194 182 177 178 177 172 159 154 156 158 159 160 162 164 166 169 171 170 170
354 358 358 354 348 349 3 18 30 40 47 57 77 89 95 108 122 133 157 206 248 231 213 191 180 177 174 173 169 155 151 154 154 153 157 159 161 166 168 170 171 173 173
Height
1467 1464 1461 1458 1456 1454 1452 1451 1450 1449 1449 1448 1447 1446 1445 1445 1445 1445 1446 1447 1449 1451 1455 1458 1461 1463 1465 1467 1468 1469 1471 1472 1472 1473 1473 1474 1473 1473 1474 1474 1475 1476 1477
1461 1457 1453 1450 1448 1446 1444 1443 1443 1442 1442 1441 1441 1441 1441 1441 1440 1440 1440 1441 1442 1444 1447 1450 1453 1456 1458 1461 1463 1465 1466 1468 1468 1469 1470 1471 1471 1472 1472 1473 1473 1474 1475
1454 1449 1445 1442 1439 1436 1434 1434 1433 1433 1433 1433 1433 1434 1434 1435 1435 1435 1435 1435 1436 1438 1440 1442 1445 1449 1451 1454 1457 1459 1461 1463 1464 1465 1466 1468 1469 1470 1471 1472 1472 1473 1474
1445 1440 1436 1432 1429 1426 1424 1423 1423 1423 1423 1424 1425 1426 1427 1428 1429 1429 1430 1430 1430 1432 1433 1435 1437 1440 1444 1447 1450 1453 1456 1457 1459 1460 1462 1464 1466 1467 1468 1470 1471 1473 1474
1436 1431 1427 1423 1419 1416 1413 1411 1411 1411 1412 1414 1416 1417 1418 1420 1421 1422 1424 1424 1425 1426 1428 1430 1431 1434 1437 1440 1443 1446 1449 1451 1453 1454 1457 1459 1461 1463 1465 1467 1469 1471 1474
1427 1422 1417 1413 1409 1405 1403 1401 1400 1400 1401 1403 1405 1408 1410 1412 1414 1416 1417 1418 1420 1421 1422 1424 1426 1428 1430 1432 1435 1439 1442 1445 1447 1448 1451 1453 1456 1458 1461 1463 1466 1469 1472
1419 1413 1408 1404 1399 1395 1393 1390 1389 1389 1390 1392 1396 1399 1401 1404 1407 1409 1410 1412 1414 1416 1417 1419 1420 1422 1423 1425 1428 1431 1435 1438 1440 1443 1445 1447 1450 1453 1456 1460 1463 1466 1468
1412 1406 1400 1395 1391 1387 1383 1381 1380 1380 1381 1383 1386 1390 1393 1396 1399 1401 1404 1405 1407 1409 1412 1413 1415 1416 1418 1419 1421 1424 1427 1430 1433 1436 1438 1442 1445 1449 1453 1456 1459 1464 1469
1405 1399 1394 1388 1383 1379 1375 1372 1371 1371 1372 1374 1377 1381 1385 1389 1392 1395 1397 1398 1400 1403 1405 1407 1409 1410 1411 1412 1414 1417 1420 1423 1427 1430 1433 1436 1440 1444 1447 1451 1456 1460 1466
1399 1393 1387 1381 1376 1371 1368 1365 1363 1363 1364 1366 1369 1373 1377 1381 1385 1387 1390 1391 1394 1396 1399 1401 1403 1404 1404 1405 1407 1410 1413 1417 1421 1424 1427 1431 1434 1438 1442 1447 1451 1457 1462
1394 1387 1381 1375 1370 1365 1362 1359 1357 1356 1357 1359 1362 1366 1370 1374 1378 1381 1383 1385 1387 1390 1393 1395 1397 1398 1398 1399 1401 1403 1407 1412 1415 1419 1422 1426 1430 1434 1439 1444 1449 1454 1459
1389 1382 1376 1370 1365 1360 1357 1354 1353 1351 1352 1354 1356 1360 1363 1368 1371 1374 1377 1379 1382 1385 1388 1390 1392 1393 1392 1393 1394 1398 1402 1407 1411 1414 1418 1422 1427 1431 1437 1442 1449 1455 1461
1385 1378 1372 1366 1361 1356 1353 1350 1348 1347 1348 1349 1351 1354 1358 1362 1365 1368 1371 1374 1377 1380 1383 1385 1387 1387 1388 1388 1389 1392 1397 1401 1406 1410 1414 1419 1425 1430 1436 1443 1450 1457 1464
1382 1375 1369 1363 1358 1354 1350 1347 1345 1344 1344 1345 1347 1350 1353 1356 1359 1362 1365 1368 1371 1375 1378 1381 1382 1383 1383 1384 1386 1388 1392 1397 1402 1406 1411 1417 1424 1430 1437 1443 1450 1457 1464
1380 1374 1367 1362 1357 1353 1349 1346 1344 1342 1341 1342 1343 1346 1348 1351 1354 1357 1360 1364 1367 1371 1374 1377 1378 1379 1380 1381 1383 1385 1389 1394 1399 1404 1410 1416 1423 1430 1437 1444 1451 1457 1462
1378 1372 1366 1361 1356 1352 1349 1346 1343 1341 1340 1340 1341 1343 1345 1348 1350 1353 1356 1360 1364 1368 1371 1373 1375 1376 1377 1378 1379 1382 1385 1390 1396 1403 1409 1416 1423 1430 1437 1444 1451 1456 1462
1378 1372 1366 1361 1357 1353 1349 1346 1344 1343 1341 1341 1341 1342 1344 1346 1348 1351 1354 1357 1361 1365 1367 1370 1372 1374 1375 1376 1377 1380 1383 1389 1395 1402 1409 1416 1423 1430 1437 1443 1449 1455 1461
1376 1371 1366 1362 1357 1354 1350 1348 1346 1344 1342 1342 1342 1343 1344 1346 1347 1350 1353 1356 1359 1362 1365 1368 1370 1371 1373 1374 1376 1379 1382 1388 1394 1401 1409 1417 1424 1430 1436 1443 1448 1454 1459
1374 1370 1366 1362 1358 1355 1352 1349 1347 1346 1344 1344 1344 1344 1345 1346 1348 1350 1353 1356 1359 1361 1364 1366 1368 1370 1372 1373 1375 1378 1382 1387 1395 1402 1410 1417 1424 1430 1436 1442 1447 1452 1457
1372 1369 1366 1362 1359 1356 1353 1350 1348 1347 1346 1345 1345 1345 1346 1348 1350 1352 1354 1357 1359 1361 1363 1365 1367 1368 1370 1372 1375 1378 1383 1389 1396 1404 1411 1418 1424 1430 1436 1440 1445 1450 1455
1370 1368 1365 1362 1360 1357 1354 1352 1350 1348 1347 1347 1346 1347 1348 1349 1351 1353 1355 1357 1359 1361 1362 1364 1366 1368 1370 1372 1375 1379 1384 1391 1398 1405 1412 1418 1424 1430 1435 1440 1445 1449 1454
1369 1366 1364 1362 1360 1358 1355 1353 1351 1349 1348 1347 1347 1348 1348 1350 1352 1354 1356 1357 1359 1360 1362 1364 1366 1367 1369 1372 1376 1380 1386 1392 1400 1407 1413 1419 1424 1429 1434 1439 1444 1449 1453
1369 1366 1364 1362 1361 1359 1356 1354 1352 1350 1349 1348 1348 1349 1349 1351 1352 1354 1356 1358 1359 1361 1362 1363 1365 1367 1370 1373 1377 1382 1389 1395 1402 1408 1413 1419 1425 1430 1435 1440 1444 1449 1453
1369 1366 1364 1362 1361 1359 1358 1356 1354 1352 1350 1349 1349 1349 1350 1352 1353 1355 1357 1358 1360 1361 1363 1364 1366 1369 1372 1375 1380 1386 1392 1399 1404 1409 1415 1420 1425 1431 1435 1440 1444 1449 1453
1370 1367 1364 1362 1361 1360 1359 1358 1356 1354 1353 1352 1351 1352 1353 1354 1356 1357 1359 1360 1362 1363 1364 1366 1368 1371 1375 1379 1384 1390 1395 1401 1406 1411 1416 1421 1426 1431 1436 1440 1444 1448 1452
1371 1368 1366 1363 1362 1361 1360 1360 1359 1358 1357 1356 1356 1356 1357 1357 1359 1361 1362 1364 1365 1366 1367 1369 1371 1374 1378 1383 1388 1393 1398 1403 1407 1412 1417 1422 1427 1431 1435 1440 1444 1448 1451